sat.trackr.live / text

‹ back to catalog

STARLINK-11615 [DTC]

NORAD 63274 · 2025-053K

PAYLOAD ACTIVE UNKNOWN

§ Identity

Operator
Country
US
Launch date
2025-03-15
Launch site
AFETR
Launch vehicle
Mass (kg)
RCS (m²)

Purposes: comms

External: N2YO · Heavens-Above · Gunter

§ Orbital elements

Epoch: 2026-05-25T02:06:05.793120Z

Period
91.67 min
Inclination
42.9990°
Eccentricity
0.0000644
Mean motion
15.70904916 rev/d
Perigee alt
355.9 km
Apogee alt
356.7 km
Semi-major
6,734.4 km
B*
1.5329e-3
RAAN
11.8421°
Arg perigee
261.3340°
Mean anomaly
98.7455°
Rev number
6,968

§ Raw data

STARLINK-11615 [DTC]1 63274U 25053K   26145.08756705  .00201642  00000+0  15329-2 0  99992 63274  42.9990  11.8421 0000644 261.3340  98.7455 15.70904916 69686

JSON: /api/v1/satellites/63274 · /tle

For live sub-satellite position, see the globe view (requires WebGL).

§ Visibility from observer

Set your observer location to see the next 7 days of passes ≥ 10°. The values pass through the URL so the page stays shareable.

No JS? Fill the form by hand. The geolocation button needs JavaScript.